Regional Weather Roundup
Issued by NWS

Home | Current Version | Previous Version | Graphics & Text | Print | Product List | Glossary On
Versions: 1 2 3 4 5 6 7 8 9 10 11 12 13 14 15 16 17 18 19 20 21 22 23 24 25 26 27 28 29 30 31 32 33 34 35 36 37 38 39 40 41 42 43 44 45 46 47 48 49 50
000
ASUS45 KBOI 060110
RWRID

IDAHO REGIONAL WEATHER ROUNDUP
NATIONAL WEATHER SERVICE BOISE ID
700 PM MDT THU MAY 05 2016

NOTE: "FAIR" INDICATES FEW OR NO CLOUDS BELOW 12000 FEET
WITH NO SIGNIFICANT WEATHER AND/OR OBSTRUCTIONS TO VISIBILITY

IDZ012-014-060200-
SOUTHWEST IDAHO


CITY           SKY/WX    TMP DP  RH WIND       PRES   REMARKS
BOISE          CLOUDY    74  46  36 NW15      29.70F
CALDWELL       CLOUDY    72  48  42 W9        29.71S
MOUNTAIN HOME  CLOUDY    78  43  28 W6        29.68F
$$

IDZ016-017-060200-
SOUTHCENTRAL IDAHO


CITY           SKY/WX    TMP DP  RH WIND       PRES   REMARKS
BURLEY         CLOUDY    73  37  27 S6        29.76F
JEROME         CLOUDY    74  38  27 E9        29.76S
TWIN FALLS     CLOUDY    73  35  25 SE14      29.74F
$$

IDZ019>023-060200-
SOUTHEAST IDAHO


CITY           SKY/WX    TMP DP  RH WIND       PRES   REMARKS
IDAHO FALLS    CLOUDY    75  36  24 SW7       29.85S
POCATELLO      CLOUDY    73  43  33 S6        29.82F
REXBURG        CLOUDY    76  30  18 CALM      29.86F
$$

IDZ006-010-011-018-031-032-060200-
CENTRAL IDAHO MOUNTAINS


CITY           SKY/WX    TMP DP  RH WIND       PRES   REMARKS
MCCALL         CLOUDY    69  36  29 NE9       29.82S
HAILEY         PTSUNNY   70  39  32 SE16G22   29.87R
STANLEY          N/A     59  35  40 S5        29.98R
SALMON         CLOUDY    75  39  27 S6        29.76R
CHALLIS        CLOUDY    72  26  18 W14G21    29.85R
$$

IDZ002-004-006-007-026-060200-
NORTHERN IDAHO


CITY           SKY/WX    TMP DP  RH WIND       PRES   REMARKS
LEWISTON       PTSUNNY   73  51  46 NW13      29.82S
LOWELL           N/A     73  52  47 CALM      29.76R
COEUR D`ALENE  MOSUNNY   73  52  46 N12       29.84S
MULLAN PASS    PTSUNNY   58  43  57 N5        29.98F
$$



USA.gov is the U.S. government's official web portal to all federal, state and local government web resources and services.